Tracking 18980 objects as of 21-Feb-2018
HD Live streaming from Space Station
objects crossing your sky now

METEOR 1-12

Track METEOR 1-12 now!
10-day predictions
METEOR 1-12 is classified as:


NORAD ID: 6079
Int'l Code: 1972-049A
Perigee: 882.8 km
Apogee: 897.8 km
Inclination: 81.2 °
Period: 102.6 minutes
Semi major axis: 7261 km
RCS: 4.3297 m2 (large)
Launch date: June 30, 1972
Source: Commonwealth of Independent States (former USSR) (CIS)
Launch site: PLESETSK MISSILE AND SPACE COMPLEX (PKMTR)
aabbcc
Your satellite tracking list
Your tracking list is empty




NASA's NSSDC Master Catalog

Two Line Element Set (TLE):
1  6079U 72049A   18051.92963259 +.00000064 +00000-0 +33519-4 0  9999
2  6079 081.2260 037.0478 0010354 336.3314 023.7376 14.03071040335007
Source of the keplerian elements: AFSPC